{"data":{"norad_id":63386,"intl_designator":"2025-063Z","name":"STARLINK-33571","alt_names":[],"object_type":"PAYLOAD","status":"ACTIVE","operator":null,"country":"US","launch_date":"2025-03-26","launch_site_code":"AFWTR","launch_vehicle":null,"mission":null,"orbit_class":"UNKNOWN","rcs_meters":null,"size_class":null,"mass_kg":null,"dimensions":null,"purposes":["comms"],"wikipedia_slug":null,"has_3d_model":false,"image_url":null,"decayed_at":null,"tle_current":{"epoch":"2026-09-20T08:02:26.190240Z","epoch_age_seconds":173110,"freshness":"STALE","line1":"1 63386U 25063Z   26263.33502535  .00018570  00000+0  55928-3 0  9999","line2":"2 63386  53.1586 234.5088 0001136  72.6448 287.4679 15.34405341 84429","mean_motion":15.34405341,"eccentricity":0.0001136,"inclination_deg":53.1586,"raan_deg":234.5088,"arg_perigee_deg":72.6448,"mean_anomaly_deg":287.4679,"bstar":0.00055928,"rev_number":8442,"period_min":93.847431413496,"perigee_km":461.91024802765,"apogee_km":463.46448332353,"semimajor_km":6840.8243656756,"source":"CELESTRAK","updated_at":"2026-09-21T09:00:34.976834Z"}}}